Погода в Даниловке

Россия / Пензенская область     52°32′38″N   45°22′50″E
темп.,
°C
ветер,
м/с
пор.,
м/с
влажн.,
%
обл.,
%
осадки,
мм/ч
давл.,
гПа
погр.,
м
8 мая, сб
сб800:00+9сз349899 0.4 1015259
03:00+8ссз2396100 0.4 1016182
06:00+10ю118886 0.0 1015265
09:00+13ю347696 0.0 1015775
12:00+16ююз466149 0.1 10141434
15:00+17ююз56508 0.1 10131615
18:00+16ююз475998 0.0 1012278
21:00+12ю4868100 0.0 1012137
9 мая, вс
вс900:00+12ююв41164100 0.0 1011198
03:00+11ююв51466100 0.1 1011308
06:00+12ююв51271100 0.1 1010304
09:00+16ю71168100 0.6 1010710
12:00+15ююв5977100 0.7 1009448
15:00+12зсз7790100 2.5 1011304
18:00+9сз5787100 0.1 1014411
21:00+7ссз61090100 0.3 1015379
10 мая, пн
пн1000:00+7с61195100 1.9 1015408
03:00+7с81496100 3.8 1016506
06:00+7с81595100 1.4 1017557
09:00+7ссв101494100 4.0 1019433
12:00+10ссв91488100 0.1 1020603
15:00+11ссв91485100 0.1 1020618
18:00+11ссв91688100 0.6 1021485
21:00+10св91886100 0.6 1021461
11 мая, вт
вт1100:00+10св91888100 0.0 1021437
03:00+9св81789100 0.1 1021417
06:00+10св81688100 0.1 1022381
09:00+14в61479100 0.1 1024569
12:00+16в6107294 0.0 1024767
15:00+20всв7126554 1.3 10231542
18:00+15ююв61090100 3.1 1024469
21:00+13вюв31197100 6.8 1025602
12 мая, ср
ср1200:00+13св3697100 4.3 1025190
03:00+13всв51194100 4.6 1024255
06:00+14в6158397 0.0 1023382
09:00+17в8167051 0.0 1023647
12:00+20в81263100 0.0 10231053
15:00+19вюв8136516 0.0 10231250
18:00+18вюв6136575 0.0 1023488
21:00+16в6147161 0.0 1022356